"read_dt","SO2 (ppb)","flags","PMT voltage (V)","lamp voltage (V)","lamp intensity (Hz)","internal temp (C)","react chamber temp (C)","sample flow (l/min)","pres (mmHg)","SO2 bkg (ppb)","SO2 coefficient"
2016-07-03 00:00:00,2160E-3,5C000400,-0723,0828,12342,032.3,045.6,0.246,757.3,01.16,0.508
2016-07-03 00:01:00,2206E-3,5C000400,-0723,0829,11114,032.3,045.6,0.247,757.3,01.16,0.508
2016-07-03 00:02:00,2150E-3,5C000400,-0723,0828,12176,032.3,045.6,0.247,757.3,01.16,0.508
2016-07-03 00:03:00,2202E-3,5C000400,-0723,0830,12105,032.3,045.6,0.247,757.3,01.16,0.508
2016-07-03 00:04:00,2076E-3,5C000400,-0723,0829,12208,032.3,045.6,0.247,757.3,01.16,0.508
2016-07-03 00:05:00,2264E-3,5C000400,-0723,0828,12242,032.4,045.6,0.246,757.3,01.16,0.508
2016-07-03 00:06:00,2108E-3,5C000400,-0723,0829,12347,032.3,045.6,0.247,757.3,01.16,0.508
2016-07-03 00:07:00,2140E-3,5C000400,-0723,0828,12180,032.3,045.6,0.247,757.3,01.16,0.508
2016-07-03 00:08:00,2133E-3,5C000400,-0723,0828,12145,032.3,045.6,0.247,757.3,01.16,0.508
2016-07-03 00:09:00,2222E-3,5C000400,-0723,0828,12380,032.3,045.6,0.247,757.3,01.16,0.508
2016-07-03 00:10:00,2203E-3,5C000400,-0723,0828,12391,032.3,045.6,0.246,757.3,01.16,0.508
2016-07-03 00:11:00,2084E-3,5C000400,-0723,0830,12292,032.3,045.6,0.247,757.3,01.16,0.508
2016-07-03 00:12:00,2111E-3,5C000400,-0723,0829,12205,032.3,045.6,0.246,757.3,01.16,0.508
2016-07-03 00:13:00,2133E-3,5C000400,-0723,0828,12248,032.3,045.6,0.247,757.3,01.16,0.508
2016-07-03 00:14:00,2148E-3,5C000400,-0723,0829,12159,032.3,045.6,0.247,757.3,01.16,0.508
2016-07-03 00:15:00,2223E-3,5C000400,-0723,0829,12232,032.4,045.6,0.246,757.2,01.16,0.508
2016-07-03 00:16:00,2090E-3,5C000400,-0723,0829,12310,032.3,045.6,0.247,757.3,01.16,0.508
2016-07-03 00:17:00,2074E-3,5C000400,-0723,0829,12240,032.3,045.6,0.246,757.2,01.16,0.508
2016-07-03 00:18:00,2126E-3,5C000400,-0723,0829,12253,032.4,045.6,0.247,757.2,01.16,0.508
2016-07-03 00:19:00,2245E-3,5C000400,-0723,0828,12164,032.3,045.6,0.247,757.2,01.16,0.508
2016-07-03 00:20:00,2161E-3,5C000400,-0723,0829,12392,032.3,045.6,0.247,757.2,01.16,0.508
2016-07-03 00:21:00,2130E-3,5C000400,-0723,0828,12202,032.3,045.6,0.247,757.2,01.16,0.508
2016-07-03 00:22:00,2059E-3,5C000400,-0723,0829,12139,032.3,045.6,0.246,757.2,01.16,0.508
2016-07-03 00:23:00,2189E-3,5C000400,-0723,0829,12275,032.3,045.6,0.247,757.2,01.16,0.508
2016-07-03 00:24:00,2346E-3,5C000400,-0723,0828,12300,032.3,045.6,0.247,757.2,01.16,0.508
2016-07-03 00:25:00,2163E-3,5C000400,-0723,0829,12253,032.3,045.6,0.247,757.2,01.16,0.508
2016-07-03 00:26:00,2113E-3,5C000400,-0723,0829,12142,032.3,045.6,0.247,757.2,01.16,0.508
2016-07-03 00:27:00,2117E-3,5C000400,-0723,0830,12275,032.3,045.6,0.246,757.2,01.16,0.508
2016-07-03 00:28:00,2377E-3,5C000400,-0723,0828,12247,032.3,045.6,0.247,757.2,01.16,0.508
2016-07-03 00:29:00,2025E-3,5C000400,-0723,0829,12116,032.3,045.6,0.247,757.2,01.16,0.508
2016-07-03 00:30:00,2226E-3,5C000400,-0723,0828,12237,032.3,045.5,0.247,757.2,01.16,0.508
2016-07-03 00:31:00,2051E-3,5C000400,-0723,0829,12108,032.3,045.6,0.247,757.2,01.16,0.508
2016-07-03 00:32:00,2116E-3,5C000400,-0723,0829,12283,032.3,045.6,0.246,757.2,01.16,0.508
2016-07-03 00:33:00,2102E-3,5C000400,-0723,0829,12129,032.3,045.6,0.247,757.2,01.16,0.508
2016-07-03 00:34:00,2149E-3,5C000400,-0723,0828,12259,032.4,045.6,0.246,757.2,01.16,0.508
2016-07-03 00:35:00,2096E-3,5C000400,-0723,0829,12207,032.3,045.6,0.247,757.2,01.16,0.508
2016-07-03 00:36:00,2268E-3,5C000400,-0723,0828,12286,032.3,045.6,0.247,757.2,01.16,0.508
2016-07-03 00:37:00,2160E-3,5C000400,-0723,0828,12237,032.3,045.6,0.246,757.1,01.16,0.508
2016-07-03 00:38:00,2138E-3,5C000400,-0723,0828,12163,032.3,045.6,0.247,757.1,01.16,0.508
2016-07-03 00:39:00,2131E-3,5C000400,-0723,0830,12398,032.3,045.6,0.246,757.1,01.16,0.508
2016-07-03 00:40:00,2174E-3,5C000400,-0723,0829,12303,032.3,045.6,0.247,757.1,01.16,0.508
2016-07-03 00:41:00,2149E-3,5C000400,-0723,0828,12163,032.3,045.6,0.247,757.1,01.16,0.508
2016-07-03 00:42:00,2215E-3,5C000400,-0723,0829,12106,032.3,045.6,0.246,757.1,01.16,0.508
2016-07-03 00:43:00,2120E-3,5C000400,-0723,0829,12362,032.3,045.6,0.247,757.2,01.16,0.508
2016-07-03 00:44:00,2133E-3,5C000400,-0723,0828,12356,032.3,045.6,0.246,757.2,01.16,0.508
2016-07-03 00:45:00,2251E-3,5C000400,-0723,0828,12118,032.3,045.6,0.247,757.2,01.16,0.508
2016-07-03 00:46:00,2174E-3,5C000400,-0723,0829,12287,032.3,045.6,0.247,757.2,01.16,0.508
2016-07-03 00:47:00,2179E-3,5C000400,-0723,0829,12185,032.3,045.6,0.246,757.1,01.16,0.508
2016-07-03 00:48:00,2171E-3,5C000400,-0723,0829,12183,032.3,045.6,0.247,757.1,01.16,0.508
2016-07-03 00:49:00,2175E-3,5C000400,-0723,0830,11264,032.4,045.6,0.246,757.1,01.16,0.508
2016-07-03 00:50:00,2248E-3,5C000400,-0723,0829,11083,032.3,045.6,0.247,757.1,01.16,0.508
2016-07-03 00:51:00,2168E-3,5C000400,-0723,0828,12099,032.3,045.6,0.247,757.1,01.16,0.508
2016-07-03 00:52:00,2139E-3,5C000400,-0723,0829,12221,032.3,045.6,0.246,757.1,01.16,0.508
2016-07-03 00:53:00,2061E-3,5C000400,-0723,0829,12275,032.3,045.6,0.247,757.1,01.16,0.508
2016-07-03 00:54:00,2054E-3,5C000400,-0723,0828,12181,032.3,045.6,0.246,757.1,01.16,0.508
2016-07-03 00:55:00,2224E-3,5C000400,-0723,0829,12235,032.3,045.6,0.247,757.1,01.16,0.508
2016-07-03 00:56:00,2179E-3,5C000400,-0723,0828,12193,032.3,045.6,0.247,757.1,01.16,0.508
2016-07-03 00:57:00,2112E-3,5C000400,-0723,0829,12086,032.3,045.6,0.246,757.1,01.16,0.508
2016-07-03 00:58:00,2168E-3,5C000400,-0723,0829,12312,032.3,045.6,0.247,757.1,01.16,0.508
2016-07-03 00:59:00,2126E-3,5C000400,-0723,0828,12232,032.3,045.6,0.247,757.1,01.16,0.508
2016-07-03 01:00:00,2160E-3,5C000400,-0723,0829,12252,032.3,045.6,0.246,757.1,01.16,0.508
2016-07-03 01:01:00,2125E-3,5C000400,-0723,0828,12255,032.4,045.6,0.247,757.1,01.16,0.508
2016-07-03 01:02:00,2148E-3,5C000400,-0723,0828,12160,032.3,045.6,0.246,757.1,01.16,0.508
2016-07-03 01:03:00,2223E-3,5C000400,-0723,0829,11929,032.4,045.6,0.247,757.1,01.16,0.508
2016-07-03 01:04:00,2133E-3,5C000400,-0723,0829,12249,032.4,045.6,0.247,757.1,01.16,0.508
2016-07-03 01:05:00,2198E-3,5C000400,-0723,0828,12281,032.3,045.6,0.247,757.1,01.16,0.508
2016-07-03 01:06:00,2061E-3,5C000400,-0723,0828,12198,032.3,045.6,0.247,757.1,01.16,0.508
2016-07-03 01:07:00,2151E-3,5C000400,-0723,0828,12366,032.3,045.6,0.246,757.1,01.16,0.508
2016-07-03 01:08:00,2184E-3,5C000400,-0723,0829,12079,032.3,045.6,0.247,757.1,01.16,0.508
2016-07-03 01:09:00,2119E-3,5C000400,-0723,0829,12243,032.3,045.6,0.246,757.1,01.16,0.508
2016-07-03 01:10:00,2065E-3,5C000400,-0723,0829,12358,032.4,045.6,0.247,757.1,01.16,0.508
2016-07-03 01:11:00,2020E-3,5C000400,-0723,0830,12168,032.4,045.6,0.247,757.1,01.16,0.508
2016-07-03 01:12:00,2166E-3,5C000400,-0723,0828,12175,032.4,045.6,0.246,757.1,01.16,0.508
2016-07-03 01:13:00,2137E-3,5C000400,-0723,0829,12260,032.3,045.6,0.247,757.1,01.16,0.508
2016-07-03 01:14:00,2052E-3,5C000400,-0723,0829,11215,032.4,045.6,0.246,757.1,01.16,0.508
2016-07-03 01:15:00,2089E-3,5C000400,-0723,0828,12130,032.4,045.6,0.247,757.1,01.16,0.508
2016-07-03 01:16:00,2152E-3,5C000400,-0723,0830,12103,032.3,045.6,0.247,757.1,01.16,0.508
2016-07-03 01:17:00,2170E-3,5C000400,-0723,0829,12209,032.3,045.6,0.246,757.1,01.16,0.508
2016-07-03 01:18:00,2247E-3,5C000400,-0723,0830,12245,032.3,045.6,0.247,757.1,01.16,0.508
2016-07-03 01:19:00,2313E-3,5C000400,-0723,0829,12361,032.3,045.6,0.246,757.1,01.16,0.508
2016-07-03 01:20:00,2162E-3,5C000400,-0723,0828,12159,032.4,045.6,0.247,757.1,01.16,0.508
2016-07-03 01:21:00,2336E-3,5C000400,-0723,0829,12372,032.4,045.6,0.247,757.1,01.16,0.508
2016-07-03 01:22:00,2197E-3,5C000400,-0723,0829,12091,032.4,045.6,0.247,757.1,01.16,0.508
2016-07-03 01:23:00,2227E-3,5C000400,-0723,0829,12179,032.4,045.6,0.247,757.1,01.16,0.508
2016-07-03 01:24:00,2192E-3,5C000400,-0723,0829,12096,032.4,045.6,0.246,757.1,01.16,0.508
2016-07-03 01:25:00,2129E-3,5C000400,-0723,0828,12254,032.4,045.6,0.247,757.1,01.16,0.508
2016-07-03 01:26:00,2128E-3,5C000400,-0723,0829,12269,032.4,045.6,0.246,757.1,01.16,0.508
2016-07-03 01:27:00,2064E-3,5C000400,-0723,0828,12251,032.4,045.6,0.247,757.1,01.16,0.508
2016-07-03 01:28:00,2205E-3,5C000400,-0723,0830,12073,032.4,045.6,0.247,757.1,01.16,0.508
2016-07-03 01:29:00,2145E-3,5C000400,-0723,0829,12217,032.4,045.6,0.246,757.1,01.16,0.508
2016-07-03 01:30:00,2203E-3,5C000400,-0723,0828,12195,032.4,045.6,0.247,757.1,01.16,0.508
2016-07-03 01:31:00,2167E-3,5C000400,-0723,0829,12331,032.4,045.6,0.246,757.1,01.16,0.508
2016-07-03 01:32:00,2084E-3,5C000400,-0723,0829,12270,032.4,045.6,0.247,757.0,01.16,0.508
2016-07-03 01:33:00,2192E-3,5C000400,-0723,0829,12158,032.4,045.6,0.247,757.1,01.16,0.508
2016-07-03 01:34:00,2162E-3,5C000400,-0723,0829,12154,032.4,045.6,0.246,757.1,01.16,0.508
2016-07-03 01:35:00,2194E-3,5C000400,-0723,0828,12032,032.4,045.6,0.247,757.1,01.16,0.508
2016-07-03 01:36:00,2024E-3,5C000400,-0723,0829,12097,032.4,045.6,0.246,757.1,01.16,0.508
2016-07-03 01:37:00,2130E-3,5C000400,-0723,0830,12361,032.4,045.6,0.247,757.1,01.16,0.508
2016-07-03 01:38:00,2194E-3,5C000400,-0723,0829,12193,032.4,045.6,0.247,757.1,01.16,0.508
2016-07-03 01:39:00,2258E-3,5C000400,-0723,0829,12123,032.4,045.6,0.246,757.1,01.16,0.508
2016-07-03 01:40:00,2164E-3,5C000400,-0723,0828,12160,032.4,045.6,0.247,757.1,01.16,0.508
2016-07-03 01:41:00,2106E-3,5C000400,-0723,0829,12336,032.4,045.6,0.246,757.0,01.16,0.508
2016-07-03 01:42:00,2128E-3,5C000400,-0723,0829,12128,032.4,045.6,0.247,757.0,01.16,0.508
2016-07-03 01:43:00,2136E-3,5C000400,-0723,0829,12169,032.4,045.6,0.247,757.0,01.16,0.508
2016-07-03 01:44:00,2215E-3,5C000400,-0723,0828,12129,032.4,045.6,0.246,757.0,01.16,0.508
2016-07-03 01:45:00,2081E-3,5C000400,-0723,0829,12241,032.4,045.6,0.247,757.0,01.16,0.508
2016-07-03 01:46:00,2123E-3,5C000400,-0723,0829,12173,032.4,045.6,0.246,757.0,01.16,0.508
2016-07-03 01:47:00,2072E-3,5C000400,-0723,0829,12229,032.4,045.6,0.247,757.0,01.16,0.508
2016-07-03 01:48:00,2224E-3,5C000400,-0723,0828,12226,032.4,045.6,0.247,757.0,01.16,0.508
2016-07-03 01:49:00,2129E-3,5C000400,-0723,0829,12146,032.4,045.6,0.246,757.0,01.16,0.508
2016-07-03 01:50:00,2241E-3,5C000400,-0723,0829,12178,032.4,045.6,0.247,757.0,01.16,0.508
2016-07-03 01:51:00,2125E-3,5C000400,-0723,0829,12149,032.4,045.6,0.246,757.0,01.16,0.508
2016-07-03 01:52:00,2242E-3,5C000400,-0723,0829,12148,032.4,045.6,0.247,757.0,01.16,0.508
2016-07-03 01:53:00,2162E-3,5C000400,-0723,0830,12232,032.4,045.6,0.246,757.0,01.16,0.508
2016-07-03 01:54:00,2144E-3,5C000400,-0723,0830,12199,032.4,045.6,0.247,757.0,01.16,0.508
2016-07-03 01:55:00,2071E-3,5C000400,-0723,0829,12136,032.4,045.6,0.247,757.0,01.16,0.508
2016-07-03 01:56:00,2207E-3,5C000400,-0723,0829,12053,032.4,045.6,0.246,756.9,01.16,0.508
2016-07-03 01:57:00,2212E-3,5C000400,-0723,0829,12134,032.4,045.6,0.247,757.0,01.16,0.508
2016-07-03 01:58:00,2128E-3,5C000400,-0723,0828,12282,032.4,045.6,0.247,757.0,01.16,0.508
2016-07-03 01:59:00,2293E-3,5C000400,-0723,0829,12246,032.4,045.6,0.246,757.0,01.16,0.508
2016-07-03 02:00:00,2209E-3,5C000400,-0723,0829,12270,032.4,045.6,0.247,757.0,01.16,0.508
2016-07-03 02:01:00,2196E-3,5C000400,-0723,0829,12217,032.4,045.6,0.246,757.0,01.16,0.508
2016-07-03 02:02:00,2150E-3,5C000400,-0723,0829,12233,032.4,045.6,0.247,757.0,01.16,0.508
2016-07-03 02:03:00,2278E-3,5C000400,-0723,0829,12142,032.4,045.6,0.246,757.0,01.16,0.508
2016-07-03 02:04:00,2167E-3,5C000400,-0723,0828,12211,032.4,045.6,0.246,757.0,01.16,0.508
2016-07-03 02:05:00,2182E-3,5C000400,-0723,0829,12249,032.4,045.6,0.247,757.0,01.16,0.508
2016-07-03 02:06:00,2075E-3,5C000400,-0723,0829,12169,032.4,045.6,0.246,757.0,01.16,0.508
2016-07-03 02:07:00,2206E-3,5C000400,-0723,0828,12176,032.4,045.6,0.247,757.0,01.16,0.508
2016-07-03 02:08:00,2065E-3,5C000400,-0723,0828,12180,032.4,045.6,0.246,757.0,01.16,0.508
2016-07-03 02:09:00,2101E-3,5C000400,-0723,0829,12146,032.4,045.6,0.246,757.0,01.16,0.508
2016-07-03 02:10:00,1996E-3,5C000400,-0723,0830,12264,032.4,045.6,0.247,757.0,01.16,0.508
2016-07-03 02:11:00,2109E-3,5C000400,-0723,0829,12233,032.4,045.6,0.246,757.0,01.16,0.508
2016-07-03 02:12:00,2091E-3,5C000400,-0723,0829,12371,032.4,045.6,0.247,757.0,01.16,0.508
2016-07-03 02:13:00,2044E-3,5C000400,-0723,0828,12336,032.4,045.6,0.246,757.0,01.16,0.508
2016-07-03 02:14:00,2160E-3,5C000400,-0723,0829,12343,032.4,045.6,0.246,757.0,01.16,0.508
2016-07-03 02:15:00,2236E-3,5C000400,-0723,0829,12372,032.4,045.6,0.246,757.0,01.16,0.508
2016-07-03 02:16:00,2129E-3,5C000400,-0723,0828,12295,032.4,045.6,0.246,757.0,01.16,0.508
2016-07-03 02:17:00,2134E-3,5C000400,-0723,0828,12236,032.4,045.6,0.247,756.9,01.16,0.508
2016-07-03 02:18:00,2180E-3,5C000400,-0723,0830,12259,032.5,045.6,0.246,757.0,01.16,0.508
2016-07-03 02:19:00,2191E-3,5C000400,-0723,0829,12091,032.5,045.6,0.247,757.0,01.16,0.508
2016-07-03 02:20:00,2093E-3,5C000400,-0723,0830,12118,032.5,045.6,0.247,757.0,01.16,0.508
2016-07-03 02:21:00,2162E-3,5C000400,-0723,0829,12275,032.5,045.6,0.246,756.9,01.16,0.508
2016-07-03 02:22:00,2070E-3,5C000400,-0723,0829,12232,032.5,045.6,0.247,757.0,01.16,0.508
2016-07-03 02:23:00,2147E-3,5C000400,-0723,0829,12183,032.4,045.6,0.246,757.0,01.16,0.508
2016-07-03 02:24:00,2203E-3,5C000400,-0723,0829,12223,032.5,045.6,0.247,756.9,01.16,0.508
2016-07-03 02:25:00,2147E-3,5C000400,-0723,0829,12141,032.5,045.6,0.246,756.9,01.16,0.508
2016-07-03 02:26:00,2185E-3,5C000400,-0723,0829,12305,032.5,045.6,0.246,757.0,01.16,0.508
2016-07-03 02:27:00,2074E-3,5C000400,-0723,0828,12242,032.5,045.6,0.247,756.9,01.16,0.508
2016-07-03 02:28:00,2231E-3,5C000400,-0723,0829,12139,032.5,045.6,0.246,756.9,01.16,0.508
2016-07-03 02:29:00,2191E-3,5C000400,-0723,0829,12093,032.5,045.6,0.246,756.9,01.16,0.508
2016-07-03 02:30:00,1979E-3,5C000400,-0723,0829,12084,032.5,045.6,0.246,756.9,01.16,0.508
2016-07-03 02:31:00,2185E-3,5C000400,-0723,0828,12038,032.5,045.6,0.246,756.9,01.16,0.508
2016-07-03 02:32:00,2162E-3,5C000400,-0723,0828,12042,032.5,045.6,0.247,757.0,01.16,0.508
2016-07-03 02:33:00,2250E-3,5C000400,-0723,0828,12059,032.5,045.6,0.246,756.9,01.16,0.508
2016-07-03 02:34:00,2221E-3,5C000400,-0723,0830,12216,032.5,045.6,0.246,756.9,01.16,0.508
2016-07-03 02:35:00,2140E-3,5C000400,-0723,0829,12262,032.5,045.6,0.246,756.9,01.16,0.508
2016-07-03 02:36:00,2198E-3,5C000400,-0723,0830,12286,032.5,045.6,0.246,756.9,01.16,0.508
2016-07-03 02:37:00,2165E-3,5C000400,-0723,0828,12298,032.5,045.6,0.247,756.9,01.16,0.508
2016-07-03 02:38:00,2148E-3,5C000400,-0723,0828,12159,032.5,045.6,0.246,756.9,01.16,0.508
2016-07-03 02:39:00,2208E-3,5C000400,-0723,0828,12067,032.5,045.6,0.246,756.9,01.16,0.508
2016-07-03 02:40:00,2050E-3,5C000400,-0723,0828,12142,032.5,045.6,0.246,756.9,01.16,0.508
2016-07-03 02:41:00,2138E-3,5C000400,-0723,0829,12196,032.5,045.6,0.246,756.9,01.16,0.508
2016-07-03 02:42:00,2168E-3,5C000400,-0723,0829,12163,032.5,045.6,0.246,756.9,01.16,0.508
2016-07-03 02:43:00,2162E-3,5C000400,-0723,0829,12319,032.5,045.6,0.246,756.9,01.16,0.508
2016-07-03 02:44:00,2135E-3,5C000400,-0723,0829,12185,032.5,045.6,0.247,756.9,01.16,0.508
2016-07-03 02:45:00,2182E-3,5C000400,-0723,0829,12187,032.5,045.6,0.246,756.9,01.16,0.508
2016-07-03 02:46:00,2147E-3,5C000400,-0723,0829,12266,032.5,045.6,0.246,756.9,01.16,0.508
2016-07-03 02:47:00,2017E-3,5C000400,-0723,0829,12334,032.5,045.6,0.246,756.9,01.16,0.508
2016-07-03 02:48:00,2151E-3,5C000400,-0723,0829,12245,032.5,045.6,0.246,756.9,01.16,0.508
2016-07-03 02:49:00,2180E-3,5C000400,-0723,0829,12124,032.5,045.6,0.246,756.8,01.16,0.508
2016-07-03 02:50:00,2045E-3,5C000400,-0723,0829,12335,032.5,045.6,0.246,756.9,01.16,0.508
2016-07-03 02:51:00,2107E-3,5C000400,-0723,0829,12241,032.5,045.6,0.246,756.9,01.16,0.508
2016-07-03 02:52:00,2156E-3,5C000400,-0723,0829,12169,032.6,045.6,0.246,756.8,01.16,0.508
2016-07-03 02:53:00,2103E-3,5C000400,-0723,0829,12192,032.5,045.6,0.246,756.9,01.16,0.508
2016-07-03 02:54:00,1947E-3,5C000400,-0723,0829,12186,032.5,045.6,0.246,756.8,01.16,0.508
2016-07-03 02:55:00,2284E-3,5C000400,-0723,0828,12214,032.5,045.6,0.246,756.8,01.16,0.508
2016-07-03 02:56:00,2196E-3,5C000400,-0723,0829,12166,032.5,045.6,0.246,756.8,01.16,0.508
2016-07-03 02:57:00,2148E-3,5C000400,-0723,0828,12050,032.5,045.6,0.247,756.7,01.16,0.508
2016-07-03 02:58:00,2038E-3,5C000400,-0723,0828,12391,032.6,045.6,0.247,756.7,01.16,0.508
2016-07-03 02:59:00,2030E-3,5C000400,-0723,0829,12123,032.6,045.6,0.246,756.7,01.16,0.508
2016-07-03 03:00:00,2103E-3,5C000400,-0723,0829,12211,032.6,045.6,0.246,756.8,01.16,0.508
2016-07-03 03:01:00,2047E-3,5C000400,-0723,0828,12264,032.6,045.6,0.246,756.8,01.16,0.508
2016-07-03 03:02:00,2254E-3,5C000400,-0723,0829,12187,032.6,045.6,0.246,756.8,01.16,0.508
2016-07-03 03:03:00,1993E-3,5C000400,-0723,0829,12135,032.6,045.6,0.246,756.8,01.16,0.508
2016-07-03 03:04:00,2169E-3,5C000400,-0723,0830,12243,032.6,045.6,0.246,756.8,01.16,0.508
2016-07-03 03:05:00,2165E-3,5C000400,-0723,0829,12172,032.6,045.6,0.246,756.8,01.16,0.508
2016-07-03 03:06:00,2181E-3,5C000400,-0723,0829,12195,032.6,045.6,0.246,756.8,01.16,0.508
2016-07-03 03:07:00,2225E-3,5C000400,-0723,0829,12177,032.6,045.6,0.246,756.8,01.16,0.508
2016-07-03 03:08:00,2143E-3,5C000400,-0723,0828,12152,032.6,045.6,0.246,756.8,01.16,0.508
2016-07-03 03:09:00,2149E-3,5C000400,-0723,0828,12299,032.6,045.6,0.246,756.8,01.16,0.508
2016-07-03 03:10:00,2140E-3,5C000400,-0723,0829,11995,032.6,045.6,0.246,756.8,01.16,0.508
2016-07-03 03:11:00,2150E-3,5C000400,-0723,0829,12206,032.6,045.6,0.246,756.8,01.16,0.508
2016-07-03 03:12:00,2152E-3,5C000400,-0723,0829,12255,032.6,045.6,0.246,756.7,01.16,0.508
2016-07-03 03:13:00,2127E-3,5C000400,-0723,0829,12285,032.6,045.6,0.246,756.8,01.16,0.508
2016-07-03 03:14:00,2233E-3,5C000400,-0723,0828,12077,032.6,045.6,0.246,756.8,01.16,0.508
2016-07-03 03:15:00,2096E-3,5C000400,-0723,0829,12199,032.6,045.6,0.246,756.7,01.16,0.508
2016-07-03 03:16:00,2078E-3,5C000400,-0723,0829,12142,032.6,045.6,0.246,756.8,01.16,0.508
2016-07-03 03:17:00,2099E-3,5C000400,-0723,0829,12168,032.6,045.6,0.246,756.7,01.16,0.508
2016-07-03 03:18:00,2086E-3,5C000400,-0723,0829,12329,032.6,045.6,0.246,756.7,01.16,0.508
2016-07-03 03:19:00,2235E-3,5C000400,-0723,0829,12249,032.6,045.6,0.246,756.8,01.16,0.508
2016-07-03 03:20:00,2230E-3,5C000400,-0723,0830,12286,032.7,045.6,0.246,756.7,01.16,0.508
2016-07-03 03:21:00,2332E-3,5C000400,-0723,0829,12118,032.6,045.6,0.246,756.8,01.16,0.508
2016-07-03 03:22:00,2221E-3,5C000400,-0723,0829,12150,032.7,045.6,0.246,756.8,01.16,0.508
2016-07-03 03:23:00,2184E-3,5C000400,-0723,0829,12266,032.7,045.6,0.246,756.8,01.16,0.508
2016-07-03 03:24:00,1983E-3,5C000400,-0723,0829,12220,032.7,045.6,0.246,756.8,01.16,0.508
2016-07-03 03:25:00,2227E-3,5C000400,-0723,0829,12032,032.7,045.6,0.246,756.8,01.16,0.508
2016-07-03 03:26:00,2105E-3,5C000400,-0723,0829,12215,032.7,045.6,0.246,756.8,01.16,0.508
2016-07-03 03:27:00,2240E-3,5C000400,-0723,0828,12149,032.7,045.6,0.246,756.8,01.16,0.508
2016-07-03 03:28:00,2180E-3,5C000400,-0723,0829,12058,032.7,045.6,0.245,756.8,01.16,0.508
2016-07-03 03:29:00,2077E-3,5C000400,-0723,0829,12341,032.7,045.6,0.246,756.8,01.16,0.508
2016-07-03 03:30:00,2088E-3,5C000400,-0723,0829,12290,032.7,045.6,0.246,756.7,01.16,0.508
2016-07-03 03:31:00,2105E-3,5C000400,-0723,0828,12217,032.7,045.6,0.246,756.7,01.16,0.508
2016-07-03 03:32:00,2085E-3,5C000400,-0723,0828,12279,032.7,045.6,0.246,756.7,01.16,0.508
2016-07-03 03:33:00,2217E-3,5C000400,-0723,0829,12195,032.7,045.6,0.245,756.7,01.16,0.508
2016-07-03 03:34:00,2124E-3,5C000400,-0723,0829,12145,032.7,045.6,0.246,756.7,01.16,0.508
2016-07-03 03:35:00,2026E-3,5C000400,-0723,0829,12140,032.7,045.6,0.246,756.7,01.16,0.508
2016-07-03 03:36:00,2193E-3,5C000400,-0723,0829,12075,032.8,045.6,0.246,756.7,01.16,0.508
2016-07-03 03:37:00,2110E-3,5C000400,-0723,0829,12276,032.7,045.6,0.246,756.6,01.16,0.508
2016-07-03 03:38:00,2141E-3,5C000400,-0723,0829,12214,032.7,045.6,0.245,756.7,01.16,0.508
2016-07-03 03:39:00,2360E-3,5C000400,-0723,0829,12396,032.7,045.6,0.246,756.7,01.16,0.508
2016-07-03 03:40:00,2218E-3,5C000400,-0723,0829,12330,032.8,045.6,0.246,756.7,01.16,0.508
2016-07-03 03:41:00,2163E-3,5C000400,-0723,0829,12054,032.8,045.6,0.246,756.6,01.16,0.508
2016-07-03 03:42:00,2050E-3,5C000400,-0723,0829,12079,032.8,045.6,0.246,756.6,01.16,0.508
2016-07-03 03:43:00,2114E-3,5C000400,-0723,0829,12206,032.8,045.6,0.245,756.6,01.16,0.508
2016-07-03 03:44:00,2200E-3,5C000400,-0723,0829,12317,032.8,045.6,0.246,756.6,01.16,0.508
2016-07-03 03:45:00,2134E-3,5C000400,-0723,0829,12181,032.8,045.6,0.246,756.6,01.16,0.508
2016-07-03 03:46:00,2166E-3,5C000400,-0723,0829,12130,032.8,045.6,0.246,756.6,01.16,0.508
2016-07-03 03:47:00,2127E-3,5C000400,-0723,0829,12305,032.8,045.6,0.246,756.6,01.16,0.508
2016-07-03 03:48:00,2039E-3,5C000400,-0723,0829,12147,032.8,045.6,0.245,756.6,01.16,0.508
2016-07-03 03:49:00,2161E-3,5C000400,-0723,0829,12303,032.8,045.6,0.246,756.6,01.16,0.508
2016-07-03 03:50:00,2126E-3,5C000400,-0723,0829,12274,032.8,045.6,0.246,756.6,01.16,0.508
2016-07-03 03:51:00,2194E-3,5C000400,-0723,0829,12261,032.8,045.6,0.246,756.6,01.16,0.508
2016-07-03 03:52:00,2126E-3,5C000400,-0723,0829,12174,032.8,045.6,0.246,756.6,01.16,0.508
2016-07-03 03:53:00,2155E-3,5C000400,-0723,0829,12116,032.8,045.6,0.245,756.6,01.16,0.508
2016-07-03 03:54:00,2167E-3,5C000400,-0723,0829,12195,032.8,045.6,0.246,756.6,01.16,0.508
2016-07-03 03:55:00,2105E-3,5C000400,-0723,0829,12215,032.8,045.6,0.245,756.6,01.16,0.508
2016-07-03 03:56:00,2162E-3,5C000400,-0723,0829,12286,032.8,045.6,0.246,756.5,01.16,0.508
2016-07-03 03:57:00,2104E-3,5C000400,-0723,0829,12085,032.9,045.6,0.246,756.5,01.16,0.508
2016-07-03 03:58:00,2177E-3,5C000400,-0723,0829,12178,032.9,045.6,0.246,756.5,01.16,0.508
2016-07-03 03:59:00,2059E-3,5C000400,-0723,0828,12167,032.9,045.6,0.246,756.5,01.16,0.508
2016-07-03 04:00:00,2039E-3,5C000400,-0723,0829,12189,032.9,045.6,0.246,756.5,01.16,0.508
2016-07-03 04:01:00,1984E-3,5C000400,-0723,0829,12117,032.9,045.6,0.245,756.5,01.16,0.508
2016-07-03 04:02:00,2065E-3,5C000400,-0723,0829,12157,032.9,045.6,0.246,756.5,01.16,0.508
2016-07-03 04:03:00,2213E-3,5C000400,-0723,0828,12186,032.9,045.6,0.245,756.5,01.16,0.508
2016-07-03 04:04:00,2249E-3,5C000400,-0723,0828,12250,032.9,045.6,0.246,756.5,01.16,0.508
2016-07-03 04:05:00,2039E-3,5C000400,-0723,0829,12098,032.9,045.6,0.246,756.5,01.16,0.508
2016-07-03 04:06:00,2121E-3,5C000400,-0723,0828,12170,032.9,045.6,0.245,756.5,01.16,0.508
2016-07-03 04:07:00,2307E-3,5C000400,-0723,0829,12304,032.9,045.6,0.246,756.5,01.16,0.508
2016-07-03 04:08:00,2096E-3,5C000400,-0723,0830,12263,033.0,045.6,0.245,756.5,01.16,0.508
2016-07-03 04:09:00,2118E-3,5C000400,-0723,0829,12309,032.9,045.6,0.245,756.5,01.16,0.508
2016-07-03 04:10:00,2249E-3,5C000400,-0723,0828,12143,032.9,045.6,0.246,756.5,01.16,0.508
2016-07-03 04:11:00,2130E-3,5C000400,-0723,0828,12252,032.9,045.6,0.245,756.5,01.16,0.508
2016-07-03 04:12:00,2124E-3,5C000400,-0723,0828,12182,032.9,045.6,0.245,756.5,01.16,0.508
2016-07-03 04:13:00,2092E-3,5C000400,-0723,0830,12103,033.0,045.6,0.245,756.4,01.16,0.508
2016-07-03 04:14:00,2067E-3,5C000400,-0723,0828,12090,033.0,045.6,0.245,756.4,01.16,0.508
2016-07-03 04:15:00,2145E-3,5C000400,-0723,0829,12223,033.0,045.6,0.246,756.5,01.16,0.508
2016-07-03 04:16:00,2155E-3,5C000400,-0723,0828,12345,033.0,045.6,0.245,756.4,01.16,0.508
2016-07-03 04:17:00,2137E-3,5C000400,-0723,0830,12301,033.0,045.6,0.245,756.4,01.16,0.508
2016-07-03 04:18:00,2179E-3,5C000400,-0723,0829,12121,033.0,045.6,0.245,756.4,01.16,0.508
2016-07-03 04:19:00,2287E-3,5C000400,-0723,0829,12339,033.0,045.6,0.245,756.4,01.16,0.508
2016-07-03 04:20:00,2139E-3,5C000400,-0723,0830,12164,033.0,045.6,0.246,756.4,01.16,0.508